Weather reports worldwide

Advertisment
Williamsport PA, United States of America (72514): temperature & dewpoint: 12.07.2019 01:00:00 - 18.07.2019 01:00:00 (EDT)Williamsport PA, United States of America (72514): wind speed & gusts: 12.07.2019 01:00:00 - 18.07.2019 01:00:00 (EDT)Williamsport PA, United States of America (72514): wind direction: 12.07.2019 01:00:00 - 18.07.2019 01:00:00 (EDT)Williamsport PA, United States of America (72514): reduced air pressure: 12.07.2019 01:00:00 - 18.07.2019 01:00:00 (EDT)Williamsport PA, United States of America (72514): visibility: 12.07.2019 01:00:00 - 18.07.2019 01:00:00 (EDT)Williamsport PA, United States of America (72514): precipitation: 12.07.2019 01:00:00 - 18.07.2019 01:00:00 (EDT)
Date & Time tt [°C] td [°C] ff [km/h] ff [kn] fx [km/h] fx [kn] dd ppp [hPa] vv [km] rr [mm]
18.07.2019 01:00:00 22,8 21,7 5 3 - - ENE 1011,3 13 0,3
18.07.2019 00:00:00 23,3 21,7 0 0 - - N 1011,5 16 -
17.07.2019 23:00:00 23,3 21,7 13 7 - - ENE 1011,3 16 -
17.07.2019 22:00:00 23,3 21,7 0 0 - - N 1011,5 16 3,3
17.07.2019 21:00:00 23,3 22,2 5 3 - - ENE 1011,4 4,8 1,8
17.07.2019 20:00:00 23,3 22,2 0 0 - - N 1011,0 16 0,0
17.07.2019 19:00:00 23,9 21,7 0 0 - - N 1011,2 16 -
17.07.2019 18:00:00 23,3 22,2 5 3 - - ESE 1011,3 16 1,8
17.07.2019 17:00:00 22,8 21,7 0 0 - - N 1012,3 6 16,3
17.07.2019 16:00:00 22,8 21,7 18 10 - - S 1012,5 3,2 9,9
17.07.2019 15:00:00 25,0 22,2 0 0 - - N 1012,1 16 12,4
17.07.2019 14:00:00 29,4 23,3 21 11 - - SSE 1012,1 16 0,0
17.07.2019 13:00:00 28,9 22,2 9 5 - - S 1012,9 16 -
17.07.2019 12:00:00 29,4 21,7 0 0 - - N 1013,4 16 -
17.07.2019 11:00:00 27,8 22,2 5 3 - - SSE 1014,0 16 -
17.07.2019 10:00:00 25,6 22,2 11 6 - - SE 1014,4 16 -
17.07.2019 09:00:00 24,4 21,1 0 0 - - N 1014,9 16 -
17.07.2019 08:00:00 22,8 21,1 0 0 - - N 1014,7 11 0,0
17.07.2019 07:00:00 22,2 20,6 0 0 - - N 1014,6 15 -
17.07.2019 06:00:00 22,2 20,6 0 0 - - N 1014,7 16 -
17.07.2019 05:00:00 22,2 20,6 0 0 - - N 1014,2 15 -
17.07.2019 04:00:00 22,2 20,6 0 0 - - N 1014,3 16 -
17.07.2019 03:00:00 22,2 20,6 5 3 - - ENE 1014,6 16 -
17.07.2019 02:00:00 22,8 21,1 0 0 - - N 1015,5 16 0,0
17.07.2019 01:00:00 22,8 21,1 0 0 - - N 1015,8 16 -
17.07.2019 00:00:00 23,3 21,1 5 3 - - E 1016,1 16 -
16.07.2019 23:00:00 22,8 21,1 15 8 - - E 1016,3 16 0,0
16.07.2019 22:00:00 22,8 21,1 8 4 - - E 1016,5 16 -
16.07.2019 21:00:00 23,3 21,7 9 5 - - E 1015,8 16 0,3
16.07.2019 20:00:00 23,9 21,7 5 3 - - SE 1015,8 16 0,3
16.07.2019 19:00:00 23,9 21,1 8 4 - - ENE 1015,8 16 0,0
16.07.2019 18:00:00 24,4 21,7 11 6 - - E 1015,8 16 0,0
16.07.2019 17:00:00 24,4 20,6 8 4 67 36 E 1016,0 16 6,6
16.07.2019 16:00:00 30,6 20,6 15 8 - - S 1015,0 16 -
16.07.2019 15:00:00 31,7 21,1 8 4 - - - 1015,9 16 -
16.07.2019 14:00:00 30,0 19,4 5 3 - - ENE 1016,6 16 0,0
16.07.2019 13:00:00 28,9 20,0 8 4 - - SE 1017,4 16 -
16.07.2019 12:00:00 26,7 18,3 0 0 - - N 1017,9 16 -
16.07.2019 11:00:00 24,4 17,2 5 3 - - - 1018,4 16 -
16.07.2019 10:00:00 22,2 16,1 0 0 - - N 1018,8 16 -
16.07.2019 09:00:00 21,1 16,1 5 3 - - WNW 1018,7 16 -
16.07.2019 08:00:00 19,4 16,1 0 0 - - N 1018,8 16 0,0
16.07.2019 07:00:00 17,2 15,6 5 3 - - N 1018,7 16 -
16.07.2019 06:00:00 16,1 15,0 5 3 - - NW 1018,3 16 -
16.07.2019 05:00:00 16,7 15,0 0 0 - - N 1017,9 16 -
16.07.2019 04:00:00 16,7 15,0 0 0 - - N 1017,6 16 -
16.07.2019 03:00:00 17,2 15,6 5 3 - - NNW 1018,1 16 -
16.07.2019 02:00:00 17,8 16,1 5 3 - - NNW 1017,9 16 0,0
16.07.2019 01:00:00 18,9 16,1 5 3 - - NW 1018,2 16 -
16.07.2019 00:00:00 19,4 16,7 0 0 - - N 1018,1 16 -
15.07.2019 23:00:00 20,6 17,2 5 3 - - NNW 1017,7 16 -
15.07.2019 22:00:00 22,2 17,2 0 0 - - N 1017,0 16 -
15.07.2019 21:00:00 24,4 15,0 8 4 - - WSW 1016,7 16 -
15.07.2019 20:00:00 26,7 15,6 5 3 - - SSW 1016,6 16 0,0
15.07.2019 19:00:00 28,3 15,0 5 3 - - SW 1016,4 16 -
15.07.2019 18:00:00 29,4 13,9 9 5 - - SW 1016,6 16 -
15.07.2019 17:00:00 29,4 13,9 9 5 - - WSW 1017,0 16 -
15.07.2019 16:00:00 28,9 13,9 9 5 - - SSW 1017,2 16 -
15.07.2019 15:00:00 28,3 13,3 16 9 - - W 1017,7 16 -
15.07.2019 14:00:00 27,8 13,9 11 6 - - SSW 1018,0 16 0,0
15.07.2019 13:00:00 26,7 12,8 0 0 - - N 1018,6 16 -
15.07.2019 12:00:00 26,1 13,9 9 5 - - - 1019,3 16 -
15.07.2019 11:00:00 24,4 14,4 5 3 - - - 1019,7 16 -
15.07.2019 10:00:00 22,8 15,0 13 7 - - W 1020,4 16 -
15.07.2019 09:00:00 21,1 15,6 13 7 - - W 1020,1 16 -
15.07.2019 08:00:00 18,3 15,0 13 7 - - W 1020,0 16 0,0
15.07.2019 07:00:00 16,7 14,4 5 3 - - - 1019,3 16 -
15.07.2019 06:00:00 15,0 13,9 5 3 - - NW 1019,0 16 -
15.07.2019 05:00:00 15,6 13,9 5 3 - - NW 1018,8 16 -
15.07.2019 04:00:00 16,1 14,4 5 3 - - NNW 1018,5 16 -
15.07.2019 03:00:00 17,2 14,4 0 0 - - N 1018,1 16 -
15.07.2019 02:00:00 17,8 15,6 0 0 - - N 1018,1 16 0,0
15.07.2019 01:00:00 18,3 15,6 0 0 - - N 1017,8 16 -
15.07.2019 00:00:00 18,9 15,6 0 0 - - N 1017,9 16 -
14.07.2019 23:00:00 20,6 15,6 0 0 - - N 1017,2 16 -
14.07.2019 22:00:00 21,7 16,1 0 0 - - N 1016,7 16 -
14.07.2019 21:00:00 23,3 16,1 0 0 - - N 1016,0 16 -
14.07.2019 20:00:00 27,8 13,3 9 5 - - NNW 1015,8 16 0,0
14.07.2019 19:00:00 29,4 12,2 11 6 - - NW 1015,1 16 -
14.07.2019 18:00:00 30,6 12,2 13 7 - - NW 1014,9 16 -
14.07.2019 17:00:00 30,6 12,8 13 7 - - N 1015,0 16 -
14.07.2019 16:00:00 30,6 11,7 13 7 - - WNW 1015,1 16 -
14.07.2019 15:00:00 30,6 11,1 11 6 - - WNW 1014,9 16 -
14.07.2019 14:00:00 29,4 10,6 11 6 - - WNW 1015,3 16 0,0
14.07.2019 13:00:00 30,0 11,7 18 10 - - NW 1015,5 16 -
14.07.2019 12:00:00 28,3 15,6 16 9 - - W 1015,7 16 -
14.07.2019 11:00:00 27,2 17,8 15 8 - - NW 1015,4 16 -
14.07.2019 10:00:00 26,1 18,9 18 10 - - WSW 1015,6 16 -
14.07.2019 09:00:00 24,4 18,3 13 7 - - W 1015,5 16 -
14.07.2019 08:00:00 22,2 17,8 9 5 - - W 1015,2 16 0,0
14.07.2019 07:00:00 20,6 17,8 0 0 - - N 1014,7 16 -
14.07.2019 06:00:00 18,9 17,2 0 0 - - N 1014,1 16 -
14.07.2019 05:00:00 18,9 17,2 5 3 - - NW 1013,8 16 -
14.07.2019 04:00:00 18,9 17,2 8 4 - - NW 1013,4 16 -
14.07.2019 03:00:00 20,0 17,2 0 0 - - N 1013,4 16 -
14.07.2019 02:00:00 19,4 17,8 5 3 - - WNW 1013,4 16 0,0
14.07.2019 01:00:00 20,6 17,2 0 0 - - N 1013,6 16 -
14.07.2019 00:00:00 21,1 17,8 0 0 - - N 1013,6 16 -
13.07.2019 23:00:00 22,2 17,8 0 0 - - N 1013,8 16 -
13.07.2019 22:00:00 23,3 17,8 0 0 - - N 1013,5 16 -
13.07.2019 21:00:00 24,4 17,8 5 3 - - W 1012,9 16 -
13.07.2019 20:00:00 27,8 17,2 8 4 - - SW 1012,8 16 0,0
13.07.2019 19:00:00 30,0 15,6 13 7 - - SW 1011,9 16 -
13.07.2019 18:00:00 30,6 15,0 16 9 - - WSW 1012,0 16 -
13.07.2019 17:00:00 30,0 15,0 9 5 - - WSW 1012,7 16 -
13.07.2019 16:00:00 30,0 12,8 11 6 - - W 1013,1 16 -
13.07.2019 15:00:00 29,4 13,9 13 7 - - W 1013,5 16 -
13.07.2019 14:00:00 28,9 15,0 15 8 - - W 1013,9 16 0,0
13.07.2019 13:00:00 26,1 16,1 5 3 - - - 1014,4 16 -
13.07.2019 12:00:00 25,6 15,0 8 4 - - W 1014,7 16 -
13.07.2019 11:00:00 23,3 15,6 8 4 - - WSW 1015,2 16 -
13.07.2019 10:00:00 22,2 15,6 9 5 - - SW 1015,1 16 -
13.07.2019 09:00:00 20,6 16,1 16 9 - - W 1015,3 16 -
13.07.2019 08:00:00 19,4 16,1 13 7 - - W 1015,3 16 0,0
13.07.2019 07:00:00 17,8 16,1 8 4 - - WNW 1014,7 16 -
13.07.2019 06:00:00 17,2 15,6 0 0 - - N 1014,1 16 -
13.07.2019 05:00:00 17,8 16,1 9 5 - - W 1013,5 16 -
13.07.2019 04:00:00 18,3 16,7 5 3 - - NNW 1013,3 16 -
13.07.2019 03:00:00 18,3 16,7 8 4 - - WNW 1012,9 16 -
13.07.2019 02:00:00 19,4 17,2 9 5 - - NW 1012,7 16 0,0
13.07.2019 01:00:00 21,1 17,2 13 7 - - WNW 1012,4 16 -
13.07.2019 00:00:00 20,6 17,2 0 0 - - N 1012,4 16 -
12.07.2019 23:00:00 21,1 17,2 0 0 - - N 1012,1 16 -
12.07.2019 22:00:00 21,7 17,2 0 0 - - N 1011,8 16 -
12.07.2019 21:00:00 22,8 16,7 0 0 - - N 1011,0 16 -
12.07.2019 20:00:00 26,1 15,6 9 5 - - NNW 1010,4 16 0,0
12.07.2019 19:00:00 27,2 15,0 15 8 - - NNW 1009,7 16 -
12.07.2019 18:00:00 26,7 16,1 11 6 - - N - 16 -
12.07.2019 17:00:00 27,2 16,1 16 9 - - NNW - 16 -
12.07.2019 16:00:00 27,8 16,1 9 5 - - - - 16 -
12.07.2019 15:00:00 28,3 15,6 13 7 - - N - 16 -
12.07.2019 14:00:00 28,0 17,0 11 6 - - NNW - 16 0,0
12.07.2019 13:00:00 27,2 16,7 15 8 - - N - 16 -
12.07.2019 12:00:00 27,2 16,7 13 7 - - WNW - 16 -
12.07.2019 11:00:00 26,1 17,2 16 9 - - NW - 16 -
12.07.2019 10:00:00 23,3 20,0 13 7 - - W 1008,7 16 -
12.07.2019 09:00:00 22,2 20,0 13 7 - - W 1008,3 16 -
12.07.2019 08:00:00 21,1 19,4 15 8 - - WNW 1008,4 13 0,0
12.07.2019 07:00:00 20,6 19,4 9 5 - - WNW 1008,2 11 -
12.07.2019 06:00:00 - - - - - - - - - -
12.07.2019 05:00:00 - - - - - - - - - -
12.07.2019 04:00:00 - - - - - - - - - -
12.07.2019 03:00:00 - - - - - - - - - -
12.07.2019 02:00:00 - - 154 83 - - N - - 0,0
12.07.2019 01:00:00 - - - - - - - - - -

tt = temperature
td = dewpoint
ff = wind speed
fx = gusts
dd = wind direction
ppp = reduced air pressure
vv = visibility
rr = precipitation

Next stations